Skip Page Navigation
NASA JPL Caltech
NASA Logo - Jet Propulsion Laboratory + View the NASA Portal
+ Center for Near-Earth Object Studies
JPL Home Earth Solar System Stars & Galaxies Technology
JPL Solar System Dynamics
BODIES ORBITS EPHEMERIDES TOOLS PHYSICAL DATA DISCOVERY FAQ SITE MAP
IMPORTANT: The SSD Announcement email list is now available. Major changes are coming in the near future, including possible hostname and/or URL changes. To be notified of such changes, subscribe to this email list.

Please visit this page for more details.


JPL Small-Body Database Browser
Search: [ help ]  
15719 (1990 CF)
Classification: Main-belt Asteroid          SPK-ID: 2015719
Ephemeris | Orbit Diagram | Orbital Elements | Mission Design | Physical Parameters | Discovery Circumstances | Close-Approach Data ]

[ show orbit diagram ]
Orbital Elements at Epoch 2459000.5 (2020-May-31.0) TDB
Reference: JPL 26 (heliocentric ecliptic J2000)
 Element Value Uncertainty (1-sigma)   Units 
e .1036195062879859 3.805e-08  
a 2.613953805535042 1.1756e-08 au
q 2.343097202745899 1.0118e-07 au
i 14.29546076964055 4.1327e-06 deg
node 113.9853961661687 1.8444e-05 deg
peri 350.5612011617186 2.888e-05 deg
M 90.93970437550946 2.2085e-05 deg
tp 2458610.561311469542
(2019-May-07.06131147)
9.4219e-05 TDB
period 1543.637389575344
4.23
1.0414e-05
2.851e-08
d
yr
n .2332153927024508 1.5733e-09 deg/d
Q 2.884810408324185 1.2974e-08 au
  Orbit Determination Parameters
   # obs. used (total)      1731  
   data-arc span      10929 days (29.92 yr)  
   first obs. used      1990-02-01  
   last obs. used      2020-01-04  
   planetary ephem.      DE431  
   SB-pert. ephem.      SB431-N16  
   condition code      0  
   norm. resid. RMS      .46002  
   source      ORB  
   producer      Otto Matic  
   solution date      2020-Jan-28 23:54:10  

Additional Information
 Earth MOID = 1.36083 au 
 Jupiter MOID = 2.23874 au 
 T_jup = 3.357 
[ show covariance matrix ]

Ephemeris | Orbit Diagram | Orbital Elements | Mission Design | Physical Parameters | Discovery Circumstances | Close-Approach Data ]

Physical Parameter Table
Parameter Symbol Value Units Sigma Reference Notes
absolute magnitude H 13.3   n/a MPO384890  
rotation period rot_per 4.771 h n/a LCDB (Rev. 2019-August); Warner et al., 2009 Result based on less than full coverage, so that the period may be wrong by 30 percent or so.
Published Reference List:
[Waszczak, A.; Chang, C.-K.; Ofeck, E.O.; Laher, F.; et al. (2015) Astron. J. 150, A75.]

15719 (1990 CF)          Discovered 1990-Feb-01 by Sugie, A. at Dynic
Reference: 20000726/Numbers.arcLast Updated: 2004-04-19

[ show close-approach data ]
Alternate Designations
 1990 CF = 1999 JR78 
Ephemeris | Orbit Diagram | Orbital Elements | Mission Design | Physical Parameters | Discovery Circumstances | Close-Approach Data ]
ABOUT SSD CREDITS/AWARDS PRIVACY/COPYRIGHT GLOSSARY LINKS
FirstGov 2020-Feb-22 04:01 UT
(server date/time)  
NASA Home Page
Site Manager:   Ryan S. Park
Webmaster  Alan B. Chamberlin